WetterOnline ( http://www.wetteronline.de )

Wetter aktuell Mühldorf

Aktuelles Wetter: Mühldorf am Inn (410m)

6-stündlich | Neueste Meldungen
Ortszeit Temperatur Wetter
Mi, 20.02. 19:00 4.5° C bedeckt
Mi, 20.02. 13:00 8.2° C bewölkt
Mi, 20.02. 7:00 2.6° C bedeckt
Mi, 20.02. 1:00 4.1° C bedeckt
Di, 19.02. 19:00 6.0° C bewölkt
Di, 19.02. 13:00 11.0° C leicht bewölkt
Di, 19.02. 7:00 -5.1° C wolkig
Di, 19.02. 1:00 -2.9° C wolkenlos
Ortszeit Temperatur Wetter
Mi, 20.02. 21:00 2.4° C bedeckt
Mi, 20.02. 20:50 2.4° C bedeckt
Mi, 20.02. 20:40 2.6° C bedeckt
Mi, 20.02. 20:30 3.2° C bedeckt
Mi, 20.02. 20:20 3.2° C bedeckt
Mi, 20.02. 20:10 3.9° C bedeckt
Mi, 20.02. 20:00 4.0° C bedeckt
Mi, 20.02. 19:30 4.2° C bedeckt
Mi, 20.02. 19:00 4.5° C bedeckt
Mi, 20.02. 18:30 5.3° C bedeckt
Mi, 20.02. 18:00 6.1° C bedeckt
Ortszeit Relative Feuchte Sichtweite
Mi, 20.02. 19:00 86% 8 km
Mi, 20.02. 13:00 71% 12 km
Mi, 20.02. 7:00 96% 2.7 km
Mi, 20.02. 1:00 91% 8 km
Di, 19.02. 19:00 80% 23 km
Di, 19.02. 13:00 50% 21 km
Di, 19.02. 7:00 91% 7 km
Di, 19.02. 1:00 96% 1.4 km
Ortszeit Relative Feuchte Sichtweite
Mi, 20.02. 21:00 96% 2.9 km
Mi, 20.02. 20:50 96% -
Mi, 20.02. 20:40 93% -
Mi, 20.02. 20:30 92% 5.0 km
Mi, 20.02. 20:20 92% -
Mi, 20.02. 20:10 91% -
Mi, 20.02. 20:00 90% 7 km
Mi, 20.02. 19:30 89% 8 km
Mi, 20.02. 19:00 86% 8 km
Mi, 20.02. 18:30 84% 9 km
Mi, 20.02. 18:00 83% 9 km
Ortszeit Niederschlagsmenge Niederschlagsart
Mi, 20.02. 19:00 0.0 l/m2 in 12 Std. -
Mi, 20.02. 13:00 0.0 l/m2 in 6 Std. -
Mi, 20.02. 7:00 0.1 l/m2 in 12 Std. Regen
Mi, 20.02. 1:00 0.1 l/m2 in 6 Std. Regen
Di, 19.02. 19:00 0.0 l/m2 in 12 Std. -
Di, 19.02. 13:00 0.0 l/m2 in 6 Std. -
Di, 19.02. 7:00 0.0 l/m2 in 12 Std. -
Di, 19.02. 1:00 0.0 l/m2 in 6 Std. -
Ortszeit Niederschlagsmenge Niederschlagsart
Mi, 20.02. 21:00 0.0 l/m2 in 1 Std. -
Mi, 20.02. 20:50 keine Meldung -
Mi, 20.02. 20:40 keine Meldung -
Mi, 20.02. 20:30 0.0 l/m2 in 1 Std. -
Mi, 20.02. 20:20 keine Meldung -
Mi, 20.02. 20:10 keine Meldung -
Mi, 20.02. 20:00 0.0 l/m2 in 1 Std. -
Mi, 20.02. 19:30 0.0 l/m2 in 1 Std. -
Mi, 20.02. 19:00 0.0 l/m2 in 1 Std. -
Mi, 20.02. 18:30 0.0 l/m2 in 1 Std. -
Mi, 20.02. 18:00 0.0 l/m2 in 1 Std. -
Ortszeit Stärke Spitze Richtung
km/h Bft. km/h Grad Sektor
Mi, 20.02. 19:00 0 0 18 - -
Mi, 20.02. 13:00 7 2 11 260° W
Mi, 20.02. 7:00 0 0 7 - -
Mi, 20.02. 1:00 4 1 14 270° W
Di, 19.02. 19:00 4 1 40 300° NW
Di, 19.02. 13:00 20 4 30 290° W
Di, 19.02. 7:00 4 1 4 270° W
Di, 19.02. 1:00 0 0 7 - -
Ortszeit Stärke Spitze Richtung
km/h Bft. km/h Grad Sektor
Mi, 20.02. 21:00 0 0 4 - -
Mi, 20.02. 20:50 0 0 - 190° S
Mi, 20.02. 20:40 0 0 - - -
Mi, 20.02. 20:30 4 1 4 80° O
Mi, 20.02. 20:20 4 1 - 80° O
Mi, 20.02. 20:10 4 1 - 90° O
Mi, 20.02. 20:00 2 1 4 10° N
Mi, 20.02. 19:30 2 1 4 310° NW
Mi, 20.02. 19:00 0 0 4 - -
Mi, 20.02. 18:30 0 0 4 - -
Mi, 20.02. 18:00 0 0 4 - -
Ortszeit Untergrenze Bedeckung Gattung
total tief tief mittel hoch
Mi, 20.02. 19:00 3600 m 8/8 8/8 - - -
Mi, 20.02. 13:00 1080 m 8/8 7/8 - - -
Mi, 20.02. 7:00 1080 m 8/8 8/8 - - -
Mi, 20.02. 1:00 630 m 8/8 8/8 - - -
Di, 19.02. 19:00 3000 m 7/8 7/8 - - -
Di, 19.02. 13:00 2100 m 5/8 2/8 - - -
Di, 19.02. 7:00 10500 m 8/8 0/8 - - -
Di, 19.02. 1:00 - 0/8 0/8 - - -
Ortszeit Bedeckungsgrad in Achtel und Wolkenuntergrenze
Mi, 20.02. 21:00 8(3300m)
Mi, 20.02. 20:50 8(3300m)
Mi, 20.02. 20:40 8(3300m)
Mi, 20.02. 20:30 8(3300m)
Mi, 20.02. 20:20 8(3300m)
Mi, 20.02. 20:10 8(3300m) 8(4500m)
Mi, 20.02. 20:00 8(3300m) 8(4500m)
Mi, 20.02. 19:30 8(3600m) 8(4200m)
Mi, 20.02. 19:00 6(3600m) 8(4200m)
Mi, 20.02. 18:30 8(4200m) 8(4200m)
Mi, 20.02. 18:00 6(3600m) 8(6900m) 8(9000m)
Ortszeit Luftdruck NN (hPa) Tendenz (hPa in 3 Std.)
Mi, 20.02. 19:00 1027 + 0,5
Mi, 20.02. 13:00 1026 + 0,4
Mi, 20.02. 7:00 1025 + 0,6
Mi, 20.02. 1:00 1024 + 0,9
Di, 19.02. 19:00 1021 + 0,2
Di, 19.02. 13:00 1021 - 0,7
Di, 19.02. 7:00 1024 + 0,8
Di, 19.02. 1:00 1022 + 0,2
Ortszeit Luftdruck NN (hPa) Tendenz (hPa in 3 Std.)
Mi, 20.02. 21:00 1028 + 1,2
Mi, 20.02. 20:50 1028 keine Meldung
Mi, 20.02. 20:40 1028 keine Meldung
Mi, 20.02. 20:30 1028 + 1,2
Mi, 20.02. 20:20 1028 keine Meldung
Mi, 20.02. 20:10 1028 keine Meldung
Mi, 20.02. 20:00 1028 + 1,2
Mi, 20.02. 19:30 1027 + 0,7
Mi, 20.02. 19:00 1027 + 0,5
Mi, 20.02. 18:30 1026 + 0,3
Mi, 20.02. 18:00 1026 + 0,2
Ortszeit Schneehöhe (cm)
Mi, 20.02. 19:00 0
Mi, 20.02. 13:00 0
Mi, 20.02. 7:00 0
Mi, 20.02. 1:00 0
Di, 19.02. 19:00 0
Di, 19.02. 13:00 0
Di, 19.02. 7:00 0
Di, 19.02. 1:00 0
Ortszeit Schneehöhe (cm)
Mi, 20.02. 21:00 0
Mi, 20.02. 20:50 0
Mi, 20.02. 20:40 0
Mi, 20.02. 20:30 0
Mi, 20.02. 20:20 0
Mi, 20.02. 20:10 0
Mi, 20.02. 20:00 0
Mi, 20.02. 19:30 0
Mi, 20.02. 19:00 0
Mi, 20.02. 18:30 0
Mi, 20.02. 18:00 0
Link zu dieser Seite / Seite empfehlen

Das Wetter in ...